(493832) = 2004 CN53 = 2015 VF129

Discovered at Kitt Peak on 2004-02-11 by Spacewatch.

Orbit

Orbit type: Main Belt

Note: WebGL enabled browser required.

epoch2023-09-13.0
epoch JD2460200.5
perihelion date2020-02-15.62264
perihelion JD2458895.12264
argument of perihelion (°)270.20415
ascending node (°)149.42348
inclination (°)12.64031
eccentricity0.1720448
perihelion distance (AU)2.1598395
Tisserand w.r.t. Jupiter3.4
ΔV w.r.t. Earth (km/sec)10.0
semimajor axis (AU)2.6086430
mean anomaly (°)305.36408
mean daily motion (°/day)0.23392780
aphelion distance (AU)3.057
period (years)4.21
P-vector [x]0.49328879
P-vector [y]0.85946474
P-vector [z]0.13411387
Q-vector [x]-0.86271366
Q-vector [y]0.46365330
Q-vector [z]0.20186816
absolute magnitude17.43
phase slope0.15
uncertainty0
referenceMPO 780303
observations used147
oppositions8
arc length (days)7189
first opposition used2004
last opposition used2023
residual rms (arc-secs)0.75
perturbers coarse indicatorM-v
perturbers precise indicator003Ek
first observation date used2004-02-11.0
last observation date used2023-10-18.0
computer nameMPCLINUX
Minimum Orbit Intersection Distances (in AU)
for orbit epoch: 2460200.5, reference: E2023-UA0
Mercury1.85745
Venus1.45955
Earth1.21457
Mars0.73663
Jupiter2.37651
Saturn6.73499
Uranus15.6779
Neptune27.4737

Observations

151 total observations over interval: 2004 02 11.28632 – 2023 10 18.267167
These data are available for download (format description).

